Ignacio, CO

1:39 PM MST on February 14, 2016 (GMT -0700)
Durango-La Plata County

Weather History for KDRO - July, 2013

Change the Weather History Date:

Saturday, July 20, 2013

  Actual Average Record
Temperature  
Mean Temperature 74 °F 69 °F  
Max Temperature 87 °F 86 °F - ()
Min Temperature 60 °F 53 °F - ()
Degree Days  
Heating Degree Days 0 0  
Month to date heating degree days 0 8  
Since 1 June heating degree days 40 123  
Since 1 July heating degree days 0 8  
Cooling Degree Days 9 5  
Month to date cooling degree days 132 70  
Year to date cooling degree days 187 99  
Since 1 June cooling degree days 187 98  
Growing Degree Days 24 (Base 50)    
Moisture  
Dew Point 50 °F    
Average Humidity 55    
Maximum Humidity 78    
Minimum Humidity 31    
Precipitation  
Precipitation 0.01 in 0.07 in - ()
Month to date precipitation 0.98 0.89  
Year to date precipitation 4.75 6.96  
Sea Level Pressure  
Sea Level Pressure 29.94 in    
Wind  
Wind Speed 5 mph (WNW)    
Max Wind Speed 22 mph    
Max Gust Speed 32 mph    
Visibility 10 miles    
Events Rain , Thunderstorm    
T = Trace of Precipitation, MM = Missing Value Source: NWS Daily Summary

Daily Weather History Graph

Daily Weather History Graph

Search for Another Location

Airport or City:

Trip Planner

Search our weather history database for the weather conditions in past years. The results will help you decide how hot, cold, wet, or windy it might be!

Date:

Astronomy

Jul. 20, 2013 Rise Set
Actual Time 6:06 AM MDT 8:27 PM MDT
Civil Twilight 5:36 AM MDT 8:57 PM MDT
Nautical Twilight 5:00 AM MDT 9:33 PM MDT
Astronomical Twilight 4:20 AM MDT 10:13 PM MDT
Moon 6:34 PM MDT (7/20) 3:49 AM MDT (7/20)
Length of Visible Light 15h 20m
Length of Day
14h 21m
Waxing Gibbous, 94% of the Moon is Illuminated
Jul 20
Waxing Gibbous
Jul 22
Full
Jul 29
Last Quarter
Aug 6
New
Aug 14
First Quarter

Hourly Weather History & Observations

Time (MDT) Temp. Dew Point Humidity Pressure Visibility Wind Dir Wind Speed Gust Speed Precip Events Conditions
12:53 AM 66.0 °F 54.0 °F 65% 29.97 in 10.0 mi Calm Calm - N/A   Clear
1:53 AM 64.9 °F 54.0 °F 68% 29.96 in 10.0 mi WSW 3.5 mph - N/A   Clear
2:53 AM 64.0 °F 54.0 °F 70% 29.94 in 10.0 mi North 3.5 mph - N/A   Scattered Clouds
3:53 AM 63.0 °F 54.0 °F 72% 29.93 in 10.0 mi North 4.6 mph - N/A   Clear
4:53 AM 63.0 °F 53.1 °F 70% 29.94 in 10.0 mi Calm Calm - N/A   Partly Cloudy
5:53 AM 60.1 °F 53.1 °F 78% 29.94 in 10.0 mi Calm Calm - N/A   Clear
6:53 AM 61.0 °F 53.1 °F 75% 29.96 in 10.0 mi Calm Calm - N/A   Scattered Clouds
7:53 AM 64.9 °F 51.1 °F 61% 29.96 in 10.0 mi NNE 3.5 mph - N/A   Clear
8:53 AM 70.0 °F 51.1 °F 51% 29.96 in 10.0 mi Calm Calm - N/A   Clear
9:53 AM 73.9 °F 50.0 °F 43% 29.93 in 10.0 mi SW 3.5 mph - N/A   Clear
10:53 AM 77.0 °F 50.0 °F 39% 29.92 in 10.0 mi Calm Calm - N/A   Clear
11:53 AM 79.0 °F 48.9 °F 35% 29.89 in 10.0 mi West 6.9 mph - N/A   Clear
12:53 PM 82.9 °F 48.0 °F 29% 29.85 in 10.0 mi Calm Calm - N/A   Clear
1:53 PM 87.1 °F 48.9 °F 27% 29.82 in 10.0 mi West 13.8 mph 18.4 mph N/A Thunderstorm Clear
2:19 PM 84.2 °F 48.2 °F 29% 30.12 in 10.0 mi Calm Calm - N/A   Clear
2:27 PM 84.2 °F 46.4 °F 27% 30.12 in 10.0 mi Variable 4.6 mph 16.1 mph N/A Thunderstorm Thunderstorm
2:53 PM 78.1 °F 50.0 °F 37% 29.83 in 10.0 mi WNW 19.6 mph 32.2 mph N/A Thunderstorm Clear
3:00 PM 78.8 °F 48.2 °F 34% 30.11 in 10.0 mi NW 11.5 mph 26.5 mph N/A   Clear
3:35 PM 78.8 °F 46.4 °F 32% 30.11 in 10.0 mi WNW 9.2 mph - N/A Thunderstorm Clear
3:50 PM 78.8 °F 46.4 °F 32% 30.10 in 10.0 mi WNW 6.9 mph - N/A Thunderstorm Clear
3:53 PM 78.1 °F 46.0 °F 32% 29.82 in 10.0 mi NW 5.8 mph - N/A Thunderstorm Clear
4:32 PM 78.8 °F 46.4 °F 32% 30.08 in 10.0 mi Calm Calm - N/A   Clear
4:53 PM 79.0 °F 46.9 °F 32% 29.81 in 10.0 mi SSW 3.5 mph - N/A   Clear
5:53 PM 78.1 °F 48.0 °F 35% 29.83 in 10.0 mi South 16.1 mph - N/A   Clear
6:53 PM 75.0 °F 46.9 °F 37% 29.83 in 10.0 mi South 3.5 mph - N/A   Clear
7:53 PM 73.0 °F 52.0 °F 48% 29.85 in 10.0 mi NE 4.6 mph - N/A   Mostly Cloudy
8:53 PM 70.0 °F 51.1 °F 51% 29.85 in 10.0 mi NE 5.8 mph - N/A   Clear
9:53 PM 66.0 °F 55.0 °F 68% 29.90 in 10.0 mi East 6.9 mph - 0.01 in   Overcast
10:53 PM 66.9 °F 54.0 °F 63% 29.89 in 10.0 mi ESE 8.1 mph 17.3 mph 0.00 in Rain Light Rain
11:53 PM 64.0 °F 55.0 °F 73% 29.90 in 10.0 mi Calm Calm - 0.00 in   Scattered Clouds